QPF
0.00 0.00 0.00 0.00 0.01 0.08 0.41 0.78 1.04 0.74 0.42 0.68 0.75 0.29 0.02 0.00 0.00 0.00 0.00 0.00 0.00 0.00 0.00 0.00 0.00 0.00 0.00 0.00 0.00 0.00 0.00 0.00 0.00 0.00 0.00 0.00 0.00 0.00 0.00 0.00 0.00 0.00 0.00 0.00
0.00 0.00 0.00 0.00 0.01 0.10 0.36 0.75 0.93 0.76 0.58 0.55 0.38 0.08 0.00 0.00 0.00 0.00 0.00 0.00 0.00 0.00 0.00 0.00 0.00 0.00 0.00 0.00 0.00 0.00 0.00 0.00 0.00 0.00 0.00 0.00 0.00 0.00 0.00 0.00 0.00 0.00 0.00 0.00
0.01 0.01 0.01 0.01 0.01 0.10 0.33 0.67 0.76 0.80 0.94 0.47 0.07 0.01 0.00 0.00 0.00 0.00 0.01 0.02 0.03 0.01 0.00 0.00 0.00 0.00 0.00 0.00 0.00 0.00 0.00 0.00 0.00 0.00 0.00 0.00 0.00 0.00 0.00 0.00 0.00 0.00 0.00 0.00
0.02 0.01 0.01 0.01 0.01 0.12 0.38 0.65 0.54 0.59 0.67 0.42 0.05 0.00 0.00 0.00 0.00 0.00 0.00 0.03 0.02 0.01 0.01 0.01 0.00 0.00 0.00 0.00 0.00 0.00 0.00 0.00 0.00 0.00 0.00 0.00 0.00 0.00 0.00 0.00 0.00 0.00 0.00 0.00
0.01 0.02 0.03 0.02 0.01 0.15 0.39 0.44 0.45 0.27 0.11 0.06 0.01 0.00 0.00 0.00 0.00 0.00 0.00 0.00 0.00 0.01 0.04 0.02 0.01 0.00 0.01 0.00 0.00 0.00 0.00 0.00 0.00 0.00 0.00 0.00 0.00 0.00 0.00 0.00 0.00 0.00 0.00 0.00
0.01 0.02 0.02 0.02 0.01 0.17 0.42 0.35 0.28 0.14 0.07 0.06 0.03 0.02 0.01 0.00 0.00 0.00 0.00 0.00 0.05 0.10 0.11 0.05 0.06 0.05 0.05 0.03 0.00 0.01 0.00 0.01 0.00 0.01 0.00 0.00 0.00 0.00 0.00 0.00 0.00 0.00 0.00 0.00
0.01 0.03 0.04 0.04 0.02 0.11 0.24 0.18 0.13 0.25 0.25 0.16 0.09 0.02 0.00 0.00 0.00 0.01 0.01 0.05 0.13 0.17 0.12 0.13 0.22 0.18 0.12 0.05 0.01 0.00 0.00 0.00 0.01 0.02 0.00 0.00 0.00 0.00 0.00 0.00 0.00 0.00 0.00 0.00
0.01 0.02 0.05 0.08 0.09 0.12 0.19 0.15 0.04 0.11 0.20 0.12 0.04 0.03 0.05 0.07 0.11 0.15 0.13 0.18 0.17 0.18 0.17 0.23 0.25 0.15 0.08 0.03 0.00 0.00 0.00 0.00 0.01 0.00 0.00 0.00 0.00 0.00 0.00 0.00 0.00 0.00 0.00 0.00
0.00 0.00 0.02 0.09 0.16 0.13 0.16 0.18 0.06 0.03 0.09 0.11 0.07 0.11 0.12 0.16 0.21 0.24 0.24 0.20 0.18 0.23 0.26 0.20 0.13 0.05 0.02 0.00 0.00 0.00 0.00 0.00 0.00 0.00 0.01 0.00 0.00 0.00 0.00 0.00 0.00 0.00 0.00 0.00
0.00 0.00 0.00 0.04 0.11 0.08 0.11 0.16 0.07 0.02 0.09 0.14 0.11 0.16 0.18 0.16 0.20 0.25 0.27 0.30 0.27 0.16 0.11 0.10 0.05 0.01 0.00 0.00 0.00 0.00 0.00 0.00 0.00 0.00 0.00 0.00 0.00 0.00 0.00 0.00 0.00 0.00 0.00 0.00
0.00 0.00 0.00 0.02 0.06 0.07 0.07 0.12 0.08 0.02 0.10 0.21 0.19 0.17 0.17 0.18 0.14 0.19 0.28 0.16 0.15 0.11 0.09 0.07 0.03 0.01 0.00 0.00 0.00 0.00 0.00 0.00 0.00 0.00 0.00 0.00 0.00 0.00 0.00 0.00 0.00 0.00 0.00 0.00
0.02 0.03 0.02 0.02 0.07 0.08 0.06 0.08 0.07 0.04 0.11 0.18 0.16 0.16 0.15 0.12 0.11 0.11 0.15 0.11 0.05 0.05 0.04 0.03 0.01 0.00 0.00 0.00 0.00 0.00 0.00 0.00 0.00 0.00 0.00 0.00 0.00 0.00 0.00 0.00 0.00 0.00 0.00 0.00
0.11 0.10 0.06 0.04 0.10 0.08 0.05 0.05 0.03 0.03 0.09 0.16 0.16 0.16 0.12 0.10 0.08 0.06 0.15 0.07 0.02 0.01 0.01 0.00 0.00 0.00 0.00 0.00 0.00 0.00 0.00 0.00 0.00 0.00 0.00 0.00 0.00 0.00 0.00 0.00 0.00 0.00 0.00 0.00
0.22 0.19 0.10 0.06 0.08 0.07 0.03 0.01 0.02 0.01 0.02 0.08 0.12 0.06 0.05 0.03 0.03 0.03 0.02 0.00 0.00 0.00 0.00 0.00 0.00 0.00 0.00 0.00 0.00 0.00 0.00 0.00 0.00 0.00 0.00 0.00 0.00 0.00 0.00 0.00 0.00 0.00 0.00 0.00
0.19 0.14 0.06 0.04 0.05 0.05 0.04 0.01 0.00 0.00 0.00 0.03 0.04 0.02 0.01 0.01 0.00 0.00 0.00 0.00 0.00 0.00 0.00 0.00 0.00 0.00 0.00 0.00 0.00 0.00 0.00 0.00 0.00 0.00 0.00 0.00 0.00 0.00 0.00 0.00 0.00 0.00 0.00 0.00
0.03 0.02 0.01 0.01 0.01 0.02 0.02 0.02 0.00 0.00 0.00 0.00 0.03 0.03 0.01 0.00 0.00 0.00 0.00 0.00 0.00 0.00 0.00 0.00 0.00 0.00 0.00 0.00 0.00 0.00 0.00 0.00 0.00 0.00 0.00 0.00 0.00 0.00 0.00 0.00 0.00 0.00 0.00 0.00
0.00 0.00 0.00 0.00 0.00 0.00 0.00 0.01 0.00 0.00 0.00 0.00 0.01 0.00 0.00 0.00 0.00 0.00 0.00 0.00 0.00 0.00 0.00 0.00 0.00 0.00 0.00 0.00 0.00 0.00 0.00 0.00 0.00 0.00 0.00 0.00 0.00 0.00 0.00 0.00 0.00 0.00 0.00 0.00
0.00 0.00 0.00 0.00 0.00 0.00 0.00 0.00 0.00 0.00 0.00 0.00 0.00 0.00 0.00 0.00 0.00 0.00 0.00 0.00 0.00 0.00 0.00 0.00 0.00 0.00 0.00 0.00 0.00 0.00 0.00 0.00 0.00 0.00 0.00 0.00 0.00 0.00 0.00 0.00 0.00 0.00 0.00 0.00
0.00 0.00 0.00 0.00 0.00 0.00 0.00 0.00 0.00 0.00 0.00 0.00 0.00 0.00 0.00 0.00 0.00 0.00 0.00 0.00 0.00 0.00 0.00 0.00 0.00 0.00 0.00 0.00 0.00 0.00 0.00 0.00 0.00 0.00 0.00 0.00 0.00 0.00 0.00 0.00 0.00 0.00 0.00 0.00
0.00 0.00 0.00 0.00 0.00 0.00 0.00 0.00 0.00 0.00 0.00 0.00 0.00 0.00 0.00 0.00 0.00 0.00 0.00 0.00 0.00 0.00 0.00 0.00 0.00 0.00 0.00 0.00 0.00 0.00 0.00 0.00 0.00 0.00 0.00 0.00 0.01 0.00 0.00 0.00 0.00 0.00 0.00 0.00
0.00 0.00 0.00 0.00 0.00 0.00 0.00 0.00 0.00 0.00 0.00 0.00 0.00 0.00 0.00 0.00 0.00 0.00 0.00 0.00 0.00 0.00 0.01 0.01 0.01 0.00 0.00 0.00 0.00 0.00 0.00 0.00 0.00 0.00 0.00 0.00 0.00 0.00 0.00 0.00 0.00 0.00 0.00 0.00
0.00 0.00 0.00 0.00 0.00 0.00 0.00 0.00 0.00 0.00 0.00 0.00 0.00 0.00 0.00 0.00 0.01 0.00 0.00 0.00 0.00 0.01 0.01 0.01 0.00 0.00 0.00 0.00 0.00 0.00 0.00 0.00 0.00 0.00 0.00 0.00 0.00 0.00 0.00 0.00 0.00 0.00 0.00 0.00
0.00 0.00 0.00 0.00 0.00 0.00 0.00 0.00 0.00 0.00 0.00 0.00 0.00 0.00 0.00 0.00 0.00 0.00 0.00 0.01 0.01 0.01 0.01 0.01 0.00 0.00 0.00 0.00 0.00 0.00 0.00 0.00 0.00 0.00 0.00 0.00 0.00 0.00 0.00 0.00 0.00 0.00 0.00 0.00
0.00 0.00 0.00 0.00 0.00 0.00 0.00 0.00 0.00 0.00 0.00 0.00 0.00 0.00 0.00 0.00 0.00 0.00 0.01 0.01 0.01 0.01 0.01 0.00 0.02 0.00 0.00 0.00 0.00 0.00 0.00 0.00 0.00 0.00 0.00 0.00 0.00 0.00 0.00 0.00 0.00 0.00 0.00 0.00
0.00 0.00 0.00 0.00 0.00 0.00 0.00 0.00 0.00 0.00 0.00 0.00 0.00 0.00 0.00 0.00 0.00 0.01 0.01 0.01 0.01 0.01 0.01 0.02 0.01 0.00 0.00 0.00 0.00 0.00 0.00 0.00 0.00 0.00 0.00 0.00 0.00 0.00 0.00 0.00 0.00 0.00 0.00 0.00
0.00 0.00 0.00 0.00 0.00 0.01 0.01 0.02 0.01 0.01 0.00 0.00 0.00 0.00 0.00 0.00 0.01 0.01 0.01 0.01 0.00 0.01 0.02 0.02 0.01 0.00 0.00 0.00 0.00 0.00 0.00 0.00 0.00 0.00 0.00 0.00 0.00 0.00 0.00 0.00 0.00 0.00 0.00 0.00
0.00 0.00 0.00 0.00 0.01 0.01 0.01 0.02 0.02 0.01 0.01 0.00 0.00 0.00 0.00 0.00 0.01 0.01 0.01 0.00 0.02 0.02 0.01 0.01 0.01 0.00 0.00 0.00 0.00 0.00 0.00 0.00 0.00 0.00 0.00 0.00 0.00 0.00 0.00 0.00 0.00 0.01 0.02 0.03
MSLP
992.86 994.24 995.36 996.71 997.99 999.19 1001.08 999.96 1000.54 1001.82 1002.60 1003.36 1004.49 1003.79 1001.89 1001.63 1000.50 1000.49 1000.60 1000.05 999.12 998.65 998.59 999.20 999.55 999.60 1000.15 1000.94 1001.64 1002.16 1003.37 1003.73 1003.82 1003.98 1003.65 1003.82 1003.70 1004.17 1004.67 1005.26 1005.62 1005.77 1005.35 1004.65
991.80 993.23 994.64 995.92 997.04 998.15 1000.03 999.60 1001.01 1001.72 1001.32 1001.07 1002.18 1002.88 1002.31 1001.64 1000.90 1000.61 1001.62 1001.22 1000.00 999.56 999.50 999.69 999.77 1000.82 1002.50 1002.49 1002.77 1002.96 1003.65 1004.35 1004.44 1004.77 1004.64 1004.77 1004.07 1003.74 1004.44 1005.44 1006.73 1005.79 1005.76 1004.97
990.75 992.32 993.69 995.16 996.47 997.57 999.03 1000.01 1001.36 1001.59 1001.06 1001.04 1001.37 1001.45 1001.46 1001.78 1001.91 1001.28 1001.97 1001.94 1002.03 1001.56 1000.69 1000.70 1000.72 1001.98 1004.49 1004.49 1004.06 1004.86 1004.30 1004.49 1004.21 1003.28 1003.02 1003.19 1003.95 1003.99 1004.46 1004.95 1005.87 1006.02 1004.75 1005.01
989.86 991.35 992.77 994.30 995.48 996.74 998.65 998.94 999.76 999.36 1000.26 1000.37 1000.21 1000.67 1000.38 1001.31 1001.55 1001.45 1001.71 1002.49 1002.97 1002.74 1002.73 1002.17 1002.70 1003.26 1005.40 1006.02 1006.17 1005.92 1005.36 1005.66 1005.49 1005.04 1004.56 1004.77 1003.67 1004.02 1004.29 1004.73 1005.62 1005.83 1005.67 1004.81
989.35 990.63 992.42 993.39 994.68 996.35 997.67 998.31 998.68 999.02 998.55 999.37 1000.59 1000.22 999.52 1000.12 1000.76 1000.97 1000.76 1001.49 1003.11 1003.48 1003.87 1003.86 1004.86 1004.41 1005.65 1006.22 1007.01 1006.70 1007.10 1007.04 1006.55 1006.39 1006.39 1006.28 1005.29 1004.57 1004.53 1004.81 1005.31 1005.82 1006.33 1005.88
988.92 990.22 991.43 992.82 993.79 995.54 996.55 998.11 997.93 997.42 997.33 998.76 999.67 998.25 998.32 998.98 1000.70 1001.25 1001.37 1002.57 1003.83 1005.24 1006.23 1006.27 1006.55 1006.55 1006.99 1007.31 1007.37 1007.47 1007.91 1008.19 1008.33 1007.76 1008.08 1007.67 1006.59 1005.63 1005.56 1005.72 1005.86 1006.44 1006.48 1006.96
988.64 989.78 991.05 992.22 993.52 994.76 995.90 996.12 995.72 997.10 997.36 997.75 997.60 998.21 999.04 999.73 1000.10 1001.54 1003.09 1003.61 1005.20 1007.27 1007.41 1007.86 1008.99 1009.15 1008.84 1008.53 1008.44 1008.27 1008.24 1008.71 1009.24 1009.07 1009.23 1007.95 1005.48 1005.82 1005.43 1005.83 1006.03 1006.68 1007.21 1008.05
988.46 989.47 990.72 991.88 993.05 994.06 995.28 995.75 995.92 996.94 997.59 997.71 998.77 998.90 999.82 1000.83 1001.72 1003.43 1004.18 1005.25 1005.77 1006.84 1007.77 1009.41 1009.94 1010.28 1010.04 1009.64 1009.13 1008.86 1008.92 1009.28 1009.68 1009.57 1008.81 1006.62 1006.51 1006.77 1006.57 1006.22 1006.23 1007.04 1007.82 1008.71
988.61 989.57 990.50 991.54 992.49 993.53 995.45 996.48 996.69 996.22 997.21 997.94 998.21 999.24 1000.04 1001.57 1002.98 1004.67 1005.55 1006.49 1006.61 1007.32 1008.10 1008.67 1008.63 1008.41 1007.77 1008.81 1009.32 1009.22 1009.23 1009.29 1009.36 1009.71 1008.55 1006.99 1005.56 1005.83 1007.22 1007.79 1007.79 1007.84 1008.58 1009.66
988.59 989.39 990.27 991.33 992.03 992.99 994.62 996.27 996.42 995.41 998.25 999.38 999.31 1000.07 1000.57 1001.73 1002.86 1004.21 1005.77 1006.63 1007.36 1007.84 1007.40 1007.49 1007.51 1007.00 1006.05 1006.90 1007.44 1008.13 1008.59 1009.16 1008.87 1008.79 1008.14 1006.77 1006.32 1007.48 1008.35 1008.66 1008.39 1009.04 1010.00 1010.91
988.58 989.41 990.26 991.30 992.33 992.51 993.89 995.82 995.82 995.46 998.15 1000.95 1000.58 1000.96 1001.32 1001.91 1001.85 1002.83 1005.29 1006.51 1007.24 1007.39 1006.73 1006.67 1006.77 1005.93 1005.60 1006.00 1005.90 1006.75 1007.38 1008.12 1008.20 1008.30 1007.90 1007.01 1006.78 1008.06 1008.27 1008.45 1009.37 1010.26 1010.92 1011.42
988.54 989.23 990.09 991.00 992.10 992.74 993.12 995.39 996.17 996.21 997.84 1001.55 1001.76 1001.96 1002.02 1002.22 1001.61 1002.02 1004.37 1004.61 1004.83 1005.17 1005.27 1005.77 1005.80 1005.27 1005.02 1005.07 1005.36 1006.23 1006.62 1006.39 1006.48 1006.81 1006.31 1006.53 1006.53 1007.38 1008.40 1009.23 1009.89 1010.60 1011.24 1011.71
989.06 989.65 990.59 991.15 992.18 992.64 993.00 995.32 995.68 996.04 999.40 1001.46 1001.80 1002.81 1002.94 1002.17 1002.04 1002.14 1003.00 1004.41 1004.68 1004.39 1004.04 1004.52 1004.93 1005.09 1004.67 1004.42 1004.32 1005.28 1005.79 1005.88 1006.47 1006.56 1006.65 1006.63 1007.25 1007.99 1008.90 1009.53 1010.22 1010.91 1011.47 1011.98
989.93 990.34 990.85 991.44 992.24 992.75 993.09 994.20 995.12 995.33 997.89 1000.60 1003.35 1003.37 1002.90 1002.78 1002.69 1002.98 1003.02 1003.59 1003.93 1004.23 1004.26 1004.48 1004.42 1004.28 1004.26 1003.79 1003.77 1004.31 1004.69 1005.55 1006.13 1006.17 1006.44 1007.01 1007.32 1007.99 1008.71 1009.37 1010.58 1011.33 1011.79 1012.18
990.88 991.28 991.49 991.89 992.55 993.15 993.78 994.48 995.01 995.25 995.85 999.39 1002.21 1002.29 1002.80 1002.95 1002.83 1003.35 1003.48 1003.90 1003.88 1003.97 1004.47 1004.55 1004.45 1004.56 1004.50 1004.29 1004.53 1004.12 1004.35 1004.93 1005.34 1005.44 1006.30 1006.82 1007.30 1007.92 1008.81 1009.90 1010.51 1011.16 1011.84 1012.11
992.60 992.71 992.65 992.79 992.93 993.39 993.51 995.36 996.41 996.24 996.00 998.28 1001.58 1004.01 1003.33 1003.39 1003.03 1003.04 1003.19 1003.62 1003.79 1004.18 1004.54 1004.77 1004.72 1005.01 1004.83 1004.84 1004.04 1003.88 1004.10 1004.79 1005.09 1005.30 1005.92 1006.72 1007.45 1008.44 1009.45 1009.95 1010.61 1011.25 1011.85 1012.31
994.16 994.22 994.34 994.09 993.78 993.71 994.79 996.30 996.79 996.67 996.41 998.16 1001.32 1003.30 1004.12 1003.48 1003.33 1003.70 1003.91 1004.00 1003.96 1004.41 1004.94 1004.85 1004.78 1005.37 1005.73 1005.31 1004.27 1003.92 1004.38 1004.74 1005.19 1005.68 1006.22 1007.16 1007.99 1008.63 1009.39 1010.11 1010.71 1011.64 1011.95 1012.27
994.75 994.66 994.43 994.17 994.22 994.88 995.17 996.97 997.17 996.93 996.06 997.95 1000.47 1002.61 1003.28 1003.50 1003.56 1004.28 1004.65 1004.74 1004.82 1005.01 1005.11 1005.26 1005.00 1005.90 1005.84 1005.30 1004.32 1004.15 1004.24 1004.98 1005.27 1005.71 1006.53 1007.69 1008.34 1008.63 1009.27 1010.02 1010.64 1011.21 1011.51 1011.61
995.28 994.99 994.62 994.47 995.00 995.65 997.13 997.95 997.10 996.33 996.85 998.45 999.98 1000.84 1002.69 1003.50 1003.65 1004.70 1005.21 1004.88 1005.01 1005.68 1005.47 1005.17 1005.29 1005.25 1005.16 1004.48 1004.04 1003.97 1004.25 1004.89 1005.37 1005.86 1006.75 1007.52 1008.22 1008.79 1009.37 1009.88 1010.37 1010.93 1011.10 1011.32
995.37 995.03 995.54 996.99 997.80 998.74 998.32 997.60 997.47 997.65 998.10 998.79 999.49 1000.33 1001.92 1002.90 1003.71 1004.45 1005.15 1005.04 1005.21 1005.51 1005.34 1005.27 1005.38 1004.45 1004.04 1003.84 1003.81 1003.95 1004.46 1005.00 1005.63 1006.35 1006.97 1007.48 1008.17 1008.70 1009.03 1009.43 1010.13 1010.70 1011.24 1011.63
995.66 996.18 996.86 997.78 998.27 997.82 998.05 998.98 999.10 999.17 999.80 1000.13 1000.43 1001.25 1001.91 1003.28 1003.61 1004.31 1004.76 1005.08 1005.23 1005.07 1005.12 1005.24 1004.39 1003.25 1003.10 1003.15 1003.36 1004.01 1004.43 1005.17 1005.71 1006.37 1006.89 1007.18 1007.99 1008.73 1009.08 1009.43 1009.81 1010.46 1011.03 1011.46
997.02 996.90 997.60 997.64 997.73 998.34 998.97 999.70 999.79 999.22 1000.01 1000.83 1001.41 1002.38 1003.27 1004.17 1004.27 1005.07 1005.58 1005.41 1005.48 1004.67 1004.89 1005.12 1003.42 1002.63 1002.88 1003.22 1003.28 1003.77 1004.44 1005.04 1005.56 1006.16 1006.82 1007.39 1007.95 1008.71 1009.41 1009.88 1010.17 1010.28 1010.82 1011.30
996.92 997.37 998.32 998.32 999.24 999.18 999.16 999.48 999.37 999.72 1000.47 1001.56 1002.49 1003.61 1004.34 1005.14 1005.28 1005.48 1005.54 1005.26 1004.62 1004.56 1004.71 1003.51 1002.55 1002.62 1002.76 1002.84 1003.23 1003.73 1004.41 1005.14 1005.78 1006.37 1007.02 1007.74 1008.53 1009.02 1009.62 1009.78 1009.90 1010.36 1010.68 1011.02
997.62 998.38 999.36 999.58 999.80 999.52 999.01 998.41 999.23 1000.17 1000.38 1001.41 1002.82 1003.83 1004.37 1005.01 1005.25 1005.24 1005.04 1004.53 1004.39 1004.18 1003.46 1002.73 1002.30 1002.22 1002.60 1003.15 1003.63 1004.13 1004.80 1005.59 1006.33 1006.90 1007.42 1008.01 1008.49 1008.89 1009.27 1009.53 1009.84 1010.14 1010.32 1010.49
998.62 998.94 999.79 1000.15 1000.22 1000.59 1000.55 1000.38 1000.05 1000.25 1000.91 1002.02 1003.07 1003.97 1004.37 1004.92 1005.18 1004.59 1004.54 1004.77 1003.87 1003.21 1002.53 1002.57 1002.42 1002.33 1002.97 1003.70 1004.35 1004.88 1005.69 1006.50 1007.24 1007.71 1008.22 1008.58 1008.83 1009.04 1009.12 1009.33 1009.54 1009.78 1009.95 1010.21
999.59 1000.00 1000.26 1000.32 1000.88 1001.13 1000.94 1000.66 1000.79 1000.61 1000.95 1001.45 1002.33 1003.30 1004.13 1004.35 1004.08 1004.07 1003.62 1003.27 1002.72 1002.50 1002.62 1002.72 1002.79 1003.01 1003.43 1004.24 1005.09 1005.88 1006.77 1007.41 1008.03 1008.45 1008.82 1009.01 1009.13 1009.13 1009.05 1009.15 1009.20 1009.20 1009.28 1009.30
1000.20 1000.90 1000.63 1000.55 1001.00 1001.28 1001.41 1001.24 1001.23 1001.20 1001.26 1001.64 1002.06 1002.74 1003.00 1003.27 1003.13 1002.76 1002.58 1002.39 1002.31 1002.54 1002.76 1002.90 1003.11 1003.75 1004.34 1005.09 1006.05 1007.03 1007.68 1007.85 1008.23 1008.59 1008.84 1008.95 1008.97 1008.96 1008.99 1008.86 1008.79 1008.86 1008.83 1008.89
Thickness
5459 5475 5491 5501 5507 5517 5510 5533 5529 5536 5531 5527 5519 5546 5583 5593 5610 5616 5608 5623 5641 5646 5650 5644 5647 5651 5653 5656 5652 5639 5639 5630 5615 5624 5645 5647 5645 5634 5631 5609 5608 5611 5615 5622
5445 5459 5474 5486 5495 5504 5503 5515 5507 5518 5525 5518 5533 5554 5566 5582 5592 5603 5591 5602 5626 5636 5633 5627 5644 5641 5619 5633 5632 5627 5627 5611 5603 5599 5614 5618 5620 5632 5626 5618 5594 5601 5593 5610
5436 5446 5460 5470 5480 5491 5489 5478 5483 5482 5495 5525 5547 5557 5564 5566 5577 5590 5587 5590 5591 5602 5617 5629 5628 5620 5593 5603 5613 5594 5613 5605 5605 5612 5624 5624 5605 5614 5615 5611 5581 5590 5605 5609
5432 5438 5448 5458 5469 5478 5468 5464 5464 5493 5494 5518 5550 5556 5567 5560 5560 5581 5587 5578 5578 5588 5580 5602 5602 5607 5581 5580 5575 5585 5593 5579 5592 5601 5605 5596 5610 5603 5604 5594 5586 5574 5589 5597
5429 5432 5428 5447 5459 5459 5456 5455 5466 5482 5527 5533 5533 5543 5559 5566 5569 5575 5586 5588 5579 5584 5573 5585 5567 5590 5576 5572 5569 5572 5568 5558 5574 5569 5573 5572 5580 5589 5590 5586 5582 5575 5569 5570
5428 5425 5430 5435 5445 5445 5441 5447 5473 5505 5524 5517 5519 5553 5574 5578 5570 5570 5582 5575 5565 5557 5546 5553 5554 5556 5553 5551 5553 5551 5547 5539 5541 5545 5547 5547 5545 5561 5566 5564 5565 5557 5545 5550
5424 5422 5422 5428 5432 5438 5446 5466 5495 5486 5497 5513 5536 5557 5561 5560 5569 5553 5548 5557 5536 5517 5523 5519 5507 5506 5514 5525 5533 5540 5537 5533 5527 5527 5522 5508 5566 5560 5563 5554 5554 5544 5536 5527
5422 5421 5418 5421 5428 5437 5448 5464 5479 5479 5490 5517 5518 5535 5541 5539 5531 5513 5522 5516 5519 5515 5509 5494 5493 5489 5492 5494 5509 5520 5525 5517 5506 5507 5516 5549 5538 5536 5537 5535 5536 5530 5516 5508
5418 5418 5418 5419 5426 5437 5442 5449 5464 5487 5487 5496 5525 5523 5528 5502 5499 5491 5489 5496 5498 5498 5489 5493 5501 5503 5524 5501 5497 5510 5512 5513 5515 5491 5501 5517 5539 5536 5524 5513 5501 5511 5501 5486
5416 5418 5419 5420 5428 5438 5447 5448 5461 5487 5464 5474 5498 5494 5506 5497 5494 5490 5479 5476 5476 5476 5492 5498 5499 5499 5528 5502 5500 5492 5496 5487 5491 5495 5498 5516 5518 5506 5496 5480 5495 5489 5476 5463
5414 5416 5418 5418 5422 5440 5446 5443 5457 5473 5456 5446 5467 5479 5476 5481 5493 5496 5469 5471 5465 5469 5485 5485 5479 5499 5510 5506 5514 5495 5489 5482 5481 5483 5474 5478 5501 5486 5479 5479 5471 5462 5454 5446
5412 5416 5418 5418 5421 5433 5448 5446 5452 5464 5461 5439 5448 5455 5464 5467 5483 5483 5465 5474 5479 5477 5479 5476 5479 5490 5502 5505 5491 5497 5484 5496 5496 5494 5494 5490 5491 5480 5469 5459 5449 5444 5437 5430
5408 5411 5411 5415 5422 5434 5449 5442 5452 5458 5437 5434 5441 5441 5444 5457 5465 5470 5462 5456 5462 5471 5484 5483 5478 5470 5493 5484 5495 5486 5484 5490 5475 5476 5477 5478 5470 5461 5451 5443 5433 5426 5419 5412
5401 5404 5411 5420 5427 5438 5450 5448 5450 5458 5450 5436 5420 5429 5435 5443 5450 5451 5460 5460 5460 5461 5467 5464 5472 5477 5483 5490 5491 5486 5482 5474 5463 5464 5464 5459 5455 5448 5440 5433 5417 5406 5400 5393
5395 5402 5412 5423 5427 5433 5437 5441 5447 5455 5463 5438 5421 5434 5434 5437 5446 5444 5446 5447 5452 5454 5452 5454 5459 5465 5465 5471 5468 5472 5474 5464 5454 5452 5451 5445 5440 5436 5425 5408 5402 5394 5384 5379
5391 5399 5407 5417 5429 5434 5440 5429 5431 5446 5457 5445 5419 5407 5422 5428 5437 5440 5444 5444 5443 5440 5440 5440 5447 5445 5450 5443 5457 5465 5462 5457 5453 5449 5443 5436 5426 5417 5402 5393 5385 5378 5371 5367
5383 5388 5394 5405 5417 5429 5431 5431 5430 5437 5446 5434 5410 5400 5405 5419 5427 5426 5427 5429 5432 5428 5422 5429 5437 5430 5425 5426 5437 5450 5447 5444 5439 5432 5423 5411 5404 5394 5386 5375 5370 5361 5361 5362
5382 5389 5398 5407 5414 5416 5424 5413 5419 5430 5447 5436 5412 5398 5406 5411 5412 5406 5412 5409 5411 5411 5413 5416 5421 5410 5411 5410 5431 5433 5432 5424 5421 5416 5405 5390 5384 5380 5371 5366 5363 5361 5361 5363
5381 5388 5398 5408 5410 5414 5407 5403 5416 5429 5434 5416 5413 5411 5398 5402 5406 5399 5397 5402 5396 5396 5397 5407 5408 5404 5396 5412 5418 5418 5414 5407 5401 5397 5386 5377 5369 5365 5362 5362 5361 5358 5360 5360
5382 5393 5392 5378 5383 5377 5388 5410 5407 5406 5410 5412 5414 5415 5396 5400 5396 5393 5389 5392 5389 5381 5393 5399 5387 5399 5410 5409 5407 5404 5397 5391 5384 5372 5368 5367 5363 5363 5364 5364 5360 5356 5351 5348
5386 5383 5380 5378 5377 5395 5395 5379 5386 5394 5388 5397 5402 5398 5394 5390 5386 5381 5387 5379 5383 5380 5387 5382 5387 5400 5404 5406 5403 5395 5391 5383 5379 5375 5374 5376 5369 5362 5362 5361 5359 5351 5346 5342
5375 5381 5376 5380 5385 5383 5375 5369 5379 5394 5386 5387 5386 5380 5375 5368 5377 5366 5366 5367 5370 5376 5383 5367 5383 5401 5402 5399 5397 5394 5390 5386 5383 5379 5375 5372 5368 5360 5353 5348 5345 5345 5340 5332
5376 5376 5361 5374 5362 5365 5371 5358 5379 5377 5374 5368 5365 5354 5354 5351 5356 5356 5358 5357 5368 5380 5365 5380 5396 5400 5400 5399 5397 5394 5390 5384 5380 5375 5370 5364 5356 5351 5343 5341 5341 5334 5330 5325
5368 5361 5346 5356 5353 5367 5380 5395 5382 5370 5374 5369 5357 5346 5351 5348 5348 5354 5356 5370 5373 5364 5369 5379 5394 5398 5395 5391 5389 5386 5382 5376 5368 5364 5360 5354 5349 5344 5338 5331 5326 5319 5319 5314
5355 5359 5344 5344 5356 5350 5354 5360 5368 5370 5367 5356 5348 5343 5349 5341 5339 5358 5358 5345 5358 5373 5382 5384 5389 5392 5385 5379 5376 5374 5368 5354 5352 5348 5337 5333 5330 5329 5328 5323 5317 5315 5309 5302
5347 5346 5340 5349 5340 5337 5346 5355 5353 5364 5364 5363 5359 5348 5338 5339 5351 5348 5354 5363 5368 5377 5378 5379 5381 5380 5377 5371 5364 5359 5347 5342 5330 5327 5323 5319 5317 5316 5316 5311 5307 5302 5297 5294
5344 5332 5343 5346 5341 5337 5339 5346 5348 5355 5356 5348 5353 5338 5346 5356 5353 5360 5369 5367 5375 5374 5374 5375 5374 5369 5363 5357 5348 5328 5326 5327 5323 5318 5314 5310 5307 5303 5300 5298 5296 5290 5285 5280